This is the latest recevied weather packets stored in our database for station/object KB0RPJ. If no packets are shown the sender has not sent any weather packets the latest 10 day(s).
| Time | Temp. | Humidity | Pressure | Rain* | Wind** | Luminosity | Snow |
|---|---|---|---|---|---|---|---|
| 1778070605 | 7.78° C | 59% | 1016.7 hPa | 0 mm | - | 82 W/m² | - |
| 1778070305 | 7.78° C | 58% | 1016.6 hPa | 0 mm | - | 82 W/m² | - |
| 1778070004 | 7.78° C | 59% | 1016.7 hPa | 0 mm | - | 82 W/m² | - |
| 1778069704 | 7.78° C | 59% | 1016.5 hPa | 0 mm | - | 73 W/m² | - |
| 1778069406 | 7.78° C | 59% | 1016.5 hPa | 0 mm | - | 47 W/m² | - |
| 1778069104 | 7.78° C | 57% | 1016.6 hPa | 0 mm | - | 31 W/m² | - |
| 1778068805 | 7.78° C | 58% | 1016.6 hPa | 0 mm | - | 32 W/m² | - |
| 1778068505 | 7.78° C | 56% | 1016.5 hPa | 0 mm | - | 28 W/m² | - |
| 1778068205 | 7.78° C | 57% | 1016.5 hPa | 0 mm | - | 26 W/m² | - |
| 1778067905 | 7.78° C | 57% | 1016.3 hPa | 0 mm | - | 20 W/m² | - |
| 1778067606 | 7.78° C | 57% | 1016.3 hPa | 0 mm | - | 12 W/m² | - |
| 1778067306 | 7.78° C | 57% | 1016.3 hPa | 0 mm | - | 10 W/m² | - |
| 1778067005 | 7.78° C | 58% | 1016.2 hPa | 0 mm | - | 8 W/m² | - |
| 1778066705 | 7.78° C | 58% | 1016.1 hPa | 0 mm | - | 7 W/m² | - |
| 1778066405 | 7.78° C | 57% | 1016 hPa | 0 mm | - | 4 W/m² | - |
| 1778066118 | 7.78° C | 57% | 1016 hPa | 0 mm | - | 2 W/m² | - |
| 1778065806 | 7.78° C | 57% | 1016 hPa | 0 mm | - | 1 W/m² | - |
| 1778065505 | 7.78° C | 57% | 1016 hPa | 0 mm | - | 0 W/m² | - |
| 1778065207 | 7.78° C | 57% | 1015.9 hPa | 0 mm | - | 0 W/m² | - |
| 1778064905 | 7.78° C | 57% | 1015.9 hPa | 0 mm | - | 0 W/m² | - |
| 1778064608 | 7.78° C | 57% | 1015.9 hPa | 0 mm | - | 0 W/m² | - |
| 1778064305 | 7.78° C | 57% | 1015.8 hPa | 0 mm | - | 0 W/m² | - |
| 1778064005 | 7.78° C | 57% | 1015.6 hPa | 0 mm | - | 0 W/m² | - |
| 1778063705 | 7.78° C | 57% | 1015.4 hPa | 0 mm | - | 0 W/m² | - |
| 1778063405 | 7.78° C | 56% | 1015.2 hPa | 0 mm | - | 0 W/m² | - |
* Rain latest hour (hover to see other rain measurements)
** Current wind speed in m/s (hover to see current wind gust speed)